Location: Nitra
(0.0000°N, 18.0833°E)
Time: 17:00:12
(UTC+02:00)

A-11 Canister half - Pass Details

Date: 08 April 2023
Orbit: 1513 x 1686 km, 47.2° (Epoch: 02 June)

Event Time Altitude Azimuth Distance (km) Brightness Sun altitude
Exits shadow 02:59:22 16° 123° (ESE) 3,420 11.0 -56.9°
Drops below altitude 10° 03:01:00 10° 126° (SE) 3,895 11.3 -56.5°
Sets 03:04:12 0° 130° (SE) 4,863 11.9 -55.7°
